TimeEST,TemperatureF,Dew PointF,Humidity,Sea Level PressureIn,VisibilityMPH,Wind Direction,Wind SpeedMPH,Gust SpeedMPH,PrecipitationIn,Events,Conditions,WindDirDegrees,DateUTC
12:14 AM,33.8,31.5,91,29.93,10.0,SSE,6.9,-,N/A,,Overcast,160,2013-01-29 05:14:00
12:35 AM,33.8,31.5,91,29.91,10.0,SE,8.1,-,N/A,,Overcast,140,2013-01-29 05:35:00
1:00 AM,33.4,31.3,92,29.89,10.0,SE,9.2,-,N/A,,Overcast,140,2013-01-29 06:00:00
1:14 AM,33.1,30.9,92,29.88,10.0,SE,9.2,-,N/A,,Overcast,140,2013-01-29 06:14:00
1:35 AM,33.1,31.1,92,29.87,10.0,SE,6.9,-,N/A,,Overcast,130,2013-01-29 06:35:00
1:55 AM,32.5,30.4,92,29.85,10.0,ESE,12.7,-,N/A,,Overcast,120,2013-01-29 06:55:00
2:14 AM,32.4,30.2,92,29.85,10.0,SE,11.5,-,N/A,,Overcast,130,2013-01-29 07:14:00
2:35 AM,32.4,30.2,92,29.84,10.0,ESE,9.2,-,N/A,,Overcast,120,2013-01-29 07:35:00
2:55 AM,32.4,30.2,92,29.84,10.0,SE,12.7,-,N/A,,Overcast,140,2013-01-29 07:55:00
3:15 AM,32.7,30.7,92,29.85,10.0,SE,9.2,-,N/A,,Overcast,130,2013-01-29 08:15:00
3:55 AM,32.7,30.7,92,29.80,10.0,SE,8.1,-,N/A,,Overcast,130,2013-01-29 08:55:00
4:15 AM,33.8,31.1,90,29.80,10.0,ESE,10.4,-,N/A,,Overcast,120,2013-01-29 09:15:00
4:35 AM,33.8,31.1,90,29.78,10.0,ESE,11.5,-,N/A,,Overcast,120,2013-01-29 09:35:00
5:00 AM,33.8,31.5,91,29.77,3.0,SE,11.5,-,N/A,,Overcast,130,2013-01-29 10:00:00
5:15 AM,33.8,31.5,91,29.76,5.0,ESE,10.4,-,N/A,Snow,Light Snow,110,2013-01-29 10:15:00
5:35 AM,33.8,31.1,90,29.77,4.0,SE,10.4,-,N/A,,Overcast,130,2013-01-29 10:35:00
5:55 AM,33.8,31.5,91,29.71,4.0,ESE,15.0,-,N/A,Snow,Light Snow,110,2013-01-29 10:55:00
6:15 AM,33.8,31.5,91,29.70,10.0,ESE,12.7,16.1,N/A,,Overcast,110,2013-01-29 11:15:00
6:34 AM,36.1,33.4,90,29.72,10.0,SE,8.1,-,N/A,,Overcast,140,2013-01-29 11:34:00
7:15 AM,36.1,33.4,90,29.69,10.0,SE,9.2,16.1,N/A,,Overcast,130,2013-01-29 12:15:00
7:34 AM,36.1,33.4,90,29.67,10.0,SE,12.7,17.3,N/A,,Overcast,130,2013-01-29 12:34:00
7:55 AM,36.1,33.4,90,29.67,10.0,SE,11.5,-,N/A,,Overcast,140,2013-01-29 12:55:00
8:15 AM,36.1,33.4,90,29.67,10.0,SE,8.1,18.4,N/A,,Overcast,140,2013-01-29 13:15:00
8:34 AM,36.1,33.8,91,29.67,10.0,SE,10.4,-,N/A,,Overcast,140,2013-01-29 13:34:00
8:55 AM,36.1,33.8,91,29.67,10.0,SE,8.1,-,N/A,,Overcast,140,2013-01-29 13:55:00
9:15 AM,37.0,34.7,91,29.66,3.0,SE,6.9,-,N/A,,Overcast,130,2013-01-29 14:15:00
9:35 AM,38.7,36.5,92,29.65,4.0,SSE,12.7,-,N/A,,Overcast,150,2013-01-29 14:35:00
9:55 AM,37.4,35.1,91,29.66,3.0,SSE,4.6,-,N/A,,Overcast,150,2013-01-29 14:55:00
10:15 AM,37.4,35.1,91,29.66,2.0,SSE,3.5,-,N/A,Rain,Light Rain,150,2013-01-29 15:15:00
10:35 AM,37.9,35.6,91,29.66,2.5,South,5.8,-,N/A,Rain,Rain,180,2013-01-29 15:35:00
10:55 AM,38.7,36.5,92,29.65,10.0,South,8.1,-,N/A,Rain,Light Rain,170,2013-01-29 15:55:00
11:15 AM,38.7,36.5,92,29.65,10.0,South,3.5,-,N/A,Rain,Light Rain,180,2013-01-29 16:15:00
11:35 AM,38.8,36.5,91,29.63,10.0,Calm,Calm,-,N/A,,Overcast,0,2013-01-29 16:35:00
11:55 AM,40.1,37.8,91,29.62,3.0,Calm,Calm,-,N/A,,Overcast,0,2013-01-29 16:55:00
12:15 PM,41.2,38.8,91,29.61,0.2,South,4.6,-,N/A,Fog,Fog,180,2013-01-29 17:15:00
12:35 PM,41.2,39.0,92,29.60,0.2,South,5.8,-,N/A,Fog,Fog,180,2013-01-29 17:35:00
12:55 PM,42.4,40.1,91,29.59,0.2,SSW,6.9,-,N/A,Fog,Fog,200,2013-01-29 17:55:00
1:15 PM,42.4,40.1,91,29.58,0.2,SSW,8.1,-,N/A,Fog,Fog,200,2013-01-29 18:15:00
1:35 PM,42.6,40.3,91,29.57,0.2,South,9.2,-,N/A,Fog,Fog,190,2013-01-29 18:35:00
1:55 PM,43.5,41.4,92,29.56,0.2,South,8.1,-,N/A,Fog,Fog,190,2013-01-29 18:55:00
2:15 PM,43.3,41.0,91,29.56,0.2,South,9.2,-,N/A,Fog,Fog,190,2013-01-29 19:15:00
2:35 PM,43.9,41.9,93,29.56,0.2,South,6.9,-,N/A,Rain,Heavy Rain,190,2013-01-29 19:35:00
2:55 PM,43.9,41.9,93,29.55,0.5,SSW,6.9,-,N/A,,Drizzle,200,2013-01-29 19:55:00
3:14 PM,43.9,41.7,92,29.56,0.2,SSW,5.8,-,N/A,Rain,Light Rain,200,2013-01-29 20:14:00
3:35 PM,44.4,42.1,91,29.55,0.2,South,6.9,-,N/A,Fog,Fog,190,2013-01-29 20:35:00
3:55 PM,43.9,41.9,93,29.54,0.2,SSW,6.9,-,N/A,Fog,Fog,200,2013-01-29 20:55:00
4:14 PM,45.0,43.0,93,29.54,0.2,South,4.6,-,N/A,Rain,Rain,190,2013-01-29 21:14:00
4:55 PM,45.1,43.0,92,29.54,0.2,South,5.8,-,N/A,Rain,Light Rain,190,2013-01-29 21:55:00
5:14 PM,46.4,44.2,92,29.53,0.2,SSW,3.5,-,N/A,Rain,Light Rain,200,2013-01-29 22:14:00
5:35 PM,45.7,43.5,92,29.52,0.2,Calm,Calm,-,N/A,Rain,Rain,0,2013-01-29 22:35:00
5:55 PM,45.7,43.5,92,29.51,0.2,Calm,Calm,-,N/A,,Drizzle,0,2013-01-29 22:55:00
6:14 PM,44.1,42.1,93,29.53,0.2,Calm,Calm,-,N/A,Rain,Rain,0,2013-01-29 23:14:00
6:35 PM,46.6,44.4,92,29.51,0.5,SE,8.1,-,N/A,Rain,Rain,140,2013-01-29 23:35:00
6:55 PM,49.1,46.8,92,29.52,1.2,SW,4.6,-,N/A,Rain,Rain,230,2013-01-29 23:55:00
7:14 PM,48.9,46.8,92,29.50,0.5,South,3.5,-,N/A,Rain,Light Rain,170,2013-01-30 00:14:00
7:35 PM,49.1,46.8,92,29.49,0.5,Calm,Calm,-,N/A,Rain,Rain,0,2013-01-30 00:35:00
7:55 PM,48.4,46.2,92,29.50,0.2,South,4.6,-,N/A,Rain,Rain,170,2013-01-30 00:55:00
8:14 PM,47.8,45.7,92,29.49,0.8,WNW,6.9,-,N/A,Rain,Heavy Rain,290,2013-01-30 01:14:00
8:35 PM,47.8,45.5,92,29.49,2.0,NW,8.1,-,N/A,Rain,Heavy Rain,310,2013-01-30 01:35:00
8:55 PM,48.9,46.6,92,29.48,5.0,Calm,Calm,-,N/A,Rain,Rain,0,2013-01-30 01:55:00
9:15 PM,45.1,43.0,92,29.46,1.0,North,5.8,-,N/A,Rain,Rain,10,2013-01-30 02:15:00
9:35 PM,45.1,43.0,92,29.44,4.0,North,4.6,-,N/A,Rain,Light Rain,10,2013-01-30 02:35:00
9:55 PM,44.4,42.3,92,29.46,1.2,Calm,Calm,-,N/A,Rain,Rain,0,2013-01-30 02:55:00
10:15 PM,44.1,42.1,93,29.46,0.8,Calm,Calm,-,N/A,Rain,Rain,0,2013-01-30 03:15:00
10:35 PM,43.9,41.9,93,29.44,0.8,Calm,Calm,-,N/A,Rain,Rain,0,2013-01-30 03:35:00
10:55 PM,43.9,41.9,93,29.41,0.8,North,4.6,-,N/A,Rain,Rain,360,2013-01-30 03:55:00
11:15 PM,43.9,41.7,92,29.41,10.0,NNE,3.5,-,N/A,Rain,Light Rain,20,2013-01-30 04:15:00
11:35 PM,41.7,39.6,92,29.41,10.0,North,4.6,-,N/A,Rain,Rain,360,2013-01-30 04:35:00
11:54 PM,41.2,39.2,93,29.40,10.0,North,3.5,-,N/A,Rain,Rain,360,2013-01-30 04:54:00